GW0681 Weather Reports


time (UTC)temp
C
wind
direction
speed
KPH
gust
KPH
rain 1hr
cm
rain 24hr
cm
rain mn
cm
humidity
%
barometer
mb
20260506134546 13 293 12.9 20.9 0.28 0.66 0.58 88 1005.2
20260506134042 13 278 12.9 17.7 0.28 0.66 0.58 90 1005.1
20260506133541 13 285 9.7 19.3 0.28 0.66 0.58 89 1005.2
20260506133045 13 278 12.9 20.9 0.28 0.64 0.56 88 1005.2
20260506132542 13 316 9.7 24.1 0.28 0.64 0.56 89 1005.2
20260506132046 13 314 9.7 24.1 0.25 0.64 0.56 89 1005.4
20260506131544 13 328 16.1 24.1 0.20 0.58 0.51 88 1005.3
20260506131045 13 46 4.8 17.7 0.18 0.56 0.46 89 1005.4
20260506130542 14 105 8.0 17.7 0.08 0.46 0.36 89 1005.0
20260506130058 14 106 9.7 14.5 0.03 0.41 0.33 88 1004.5
20260506125543 15 122 4.8 17.7 0.00 0.41 0.30 87 1004.4
20260506125041 15 51 8.0 17.7 0.00 0.38 0.28 86 1004.5
20260506124549 15 147 8.0 16.1 0.00 0.38 0.28 84 1004.6
20260506124042 16 134 4.8 12.9 0.00 0.38 0.28 84 1004.4
20260506123541 16 102 4.8 12.9 0.00 0.38 0.28 85 1004.4
20260506123049 16 121 9.7 12.9 0.00 0.38 0.28 83 1004.3
20260506122541 16 141 4.8 12.9 0.00 0.38 0.28 82 1004.3
20260506122041 16 129 6.4 12.9 0.00 0.38 0.28 82 1004.3
20260506121549 16 107 4.8 12.9 0.00 0.38 0.28 83 1004.4
20260506121041 16 113 4.8 9.7 0.00 0.38 0.28 84 1004.4
20260506120542 16 110 3.2 8.0 0.03 0.38 0.28 84 1004.6
20260506120052 16 97 3.2 8.0 0.05 0.38 0.28 83 1004.6
20260506115541 15 120 6.4 8.0 0.08 0.46 0.28 83 1004.6
20260506115041 15 101 1.6 9.7 0.08 0.46 0.28 86 1004.7
20260506114551 15 99 4.8 11.3 0.08 0.46 0.28 85 1004.9
20260506114042 15 97 3.2 11.3 0.08 0.46 0.28 89 1004.9
20260506113542 15 122 4.8 9.7 0.08 0.46 0.28 90 1005.0
20260506113048 14 100 4.8 9.7 0.08 0.46 0.28 91 1004.9
20260506112542 14 99 6.4 9.7 0.08 0.46 0.28 91 1005.1
20260506112041 14 104 3.2 8.0 0.08 0.46 0.28 91 1005.1
20260506111553 14 93 3.2 8.0 0.05 0.43 0.28 91 1005.3
20260506111041 14 101 1.6 8.0 0.05 0.43 0.28 91 1005.3
20260506110546 14 103 3.2 8.0 0.00 0.38 0.23 90 1005.4
20260506110052 14 131 3.2 14.5 0.00 0.38 0.23 89 1005.4
20260506105541 15 103 9.7 14.5 0.00 0.36 0.20 88 1005.3
20260506105041 15 126 8.0 12.9 0.00 0.36 0.20 87 1005.3
20260506104550 15 165 6.4 11.3 0.00 0.36 0.20 87 1005.2
20260506104041 15 117 4.8 11.3 0.00 0.36 0.20 87 1005.1
20260506103542 15 110 4.8 11.3 0.00 0.36 0.20 87 1005.2
20260506103112 15 105 4.8 11.3 0.00 0.36 0.20 87 1005.2
20260506102542 15 102 4.8 12.9 0.00 0.36 0.20 87 1005.3
20260506102041 15 91 4.8 12.9 0.00 0.36 0.20 86 1005.4
20260506101552 15 91 4.8 12.9 0.00 0.36 0.20 86 1005.4
20260506101041 15 76 0.0 3.2 0.00 0.36 0.20 83 1005.4
20260506100541 15 72 0.0 3.2 0.00 0.36 0.20 85 1005.3
20260506100053 15 72 0.0 4.8 0.00 0.36 0.20 84 1005.3
20260506095542 15 71 3.2 6.4 0.00 0.36 0.20 84 1005.3
20260506095042 15 68 3.2 6.4 0.00 0.36 0.20 85 1005.3
20260506094554 15 72 1.6 4.8 0.00 0.36 0.20 85 1005.4
20260506094041 15 60 0.0 3.2 0.00 0.36 0.20 85 1005.3
20260506093542 15 64 0.0 3.2 0.00 0.36 0.20 85 1005.4
20260506093055 15 68 0.0 4.8 0.00 0.36 0.20 85 1005.4
20260506092542 15 0 1.6 8.0 0.00 0.36 0.20 85 1005.5
20260506092041 15 65 1.6 9.7 0.00 0.36 0.20 88 1005.6
20260506091547 15 346 4.8 9.7 0.00 0.36 0.20 87 1005.8
20260506091042 15 15 6.4 9.7 0.00 0.36 0.20 87 1005.8
20260506090541 15 349 4.8 9.7 0.00 0.36 0.20 84 1005.6
20260506090058 15 25 1.6 11.3 0.00 0.36 0.20 86 1005.7
20260506085541 15 15 4.8 11.3 0.00 0.36 0.20 87 1005.7
20260506085042 15 309 3.2 11.3 0.00 0.36 0.20 87 1005.7
20260506084601 14 303 1.6 6.4 0.00 0.36 0.20 88 1005.9
20260506084042 14 44 3.2 6.4 0.00 0.36 0.20 88 1006.0
20260506083542 14 26 0.0 4.8 0.00 0.36 0.20 89 1005.9
20260506083051 14 35 1.6 3.2 0.00 0.36 0.20 89 1005.9
20260506082541 14 304 1.6 4.8 0.00 0.36 0.20 90 1005.8
20260506082041 14 0 1.6 4.8 0.00 0.36 0.20 90 1005.8
20260506081554 14 27 1.6 4.8 0.00 0.36 0.20 90 1005.9
20260506081041 14 324 1.6 4.8 0.00 0.36 0.20 90 1005.9
20260506080542 13 49 0.0 3.2 0.00 0.36 0.18 89 1005.9
20260506073058 13 0 0.0 0.0 0.00 0.36 0.18 90 1006.2
20260506072542 13 0 0.0 0.0 0.00 0.36 0.18 91 1006.2
20260506072042 13 0 0.0 0.0 0.00 0.36 0.18 91 1006.1
20260506071552 13 0 0.0 0.0 0.00 0.36 0.18 92 1006.0
20260506071041 13 0 0.0 0.0 0.00 0.36 0.18 92 1006.1
20260506070545 13 0 0.0 0.0 0.00 0.36 0.18 92 1006.0
20260506062042 13 0 0.0 1.6 0.00 0.33 0.18 94 1006.5
20260506061600 12 89 0.0 1.6 0.00 0.33 0.18 94 1006.5
20260506061042 12 0 0.0 1.6 0.00 0.33 0.18 94 1006.5
20260506060543 12 0 0.0 1.6 0.00 0.33 0.18 94 1006.4
20260506051045 12 63 0.0 1.6 0.00 0.33 0.18 94 1006.3
20260506050542 12 0 0.0 3.2 0.00 0.33 0.18 93 1006.1
20260506050108 12 0 0.0 3.2 0.00 0.33 0.18 93 1006.1
20260506045043 12 39 0.0 4.8 0.00 0.33 0.18 93 1006.0
20260506044552 12 30 3.2 4.8 0.00 0.33 0.18 93 1006.0
20260506044111 12 30 1.6 4.8 0.00 0.33 0.18 93 1006.2
20260506043541 12 46 1.6 4.8 0.00 0.33 0.18 93 1006.3
20260506043055 12 51 3.2 4.8 0.00 0.33 0.18 93 1006.5
20260506042543 12 56 1.6 4.8 0.00 0.33 0.18 93 1006.4
20260506042041 12 60 3.2 4.8 0.00 0.33 0.18 93 1006.4
20260506041552 12 46 3.2 4.8 0.00 0.33 0.18 93 1006.4
20260506041041 12 55 1.6 3.2 0.00 0.33 0.18 94 1006.5
20260506040541 12 63 0.0 3.2 0.00 0.33 0.18 94 1006.5
20260506040101 12 68 1.6 4.8 0.00 0.33 0.18 94 1006.5
20260506035541 12 34 3.2 8.0 0.00 0.33 0.18 94 1006.5
20260506035041 12 20 3.2 8.0 0.03 0.33 0.18 93 1006.5
20260506034551 12 338 4.8 8.0 0.03 0.33 0.18 93 1006.6
20260506034041 12 329 4.8 6.4 0.03 0.33 0.18 93 1006.6
20260506033542 12 300 4.8 6.4 0.03 0.33 0.18 93 1006.7
20260506033050 12 36 0.0 3.2 0.05 0.33 0.18 92 1006.8
20260506032543 12 0 0.0 1.6 0.05 0.33 0.18 92 1006.9
20260506032042 12 0 0.0 4.8 0.05 0.33 0.18 92 1006.8
20260506031553 12 0 1.6 8.0 0.05 0.33 0.18 92 1006.8
20260506031045 12 43 4.8 8.0 0.08 0.33 0.18 92 1006.9
20260506030541 12 65 4.8 11.3 0.10 0.33 0.18 92 1006.8
20260506030055 12 65 6.4 11.3 0.13 0.33 0.18 93 1006.7
20260506025541 12 58 8.0 11.3 0.10 0.30 0.15 93 1006.7
20260506025041 12 60 0.0 4.8 0.08 0.28 0.13 94 1006.7
20260506024557 12 0 0.0 0.0 0.08 0.28 0.13 94 1006.6
20260506024042 12 0 0.0 1.6 0.10 0.28 0.13 93 1006.6
20260506023543 12 0 0.0 3.2 0.10 0.28 0.13 94 1006.6
20260506023046 12 0 0.0 3.2 0.10 0.28 0.10 94 1006.7
20260506022541 12 41 1.6 3.2 0.10 0.28 0.10 93 1006.6
20260506022041 12 45 0.0 4.8 0.10 0.28 0.10 93 1006.7
20260506021601 12 38 1.6 4.8 0.10 0.28 0.10 93 1006.9
20260506021042 12 354 3.2 4.8 0.08 0.23 0.08 93 1007.0
20260506020542 12 333 3.2 4.8 0.05 0.20 0.05 93 1007.1
20260506020048 12 37 1.6 4.8 0.03 0.18 0.03 92 1007.2
20260506015543 12 28 1.6 4.8 0.03 0.18 0.03 92 1007.3
20260506015042 12 22 3.2 4.8 0.03 0.18 0.03 92 1007.3
20260506014551 12 356 4.8 4.8 0.03 0.18 0.03 91 1007.3
20260506014044 12 11 1.6 4.8 0.00 0.18 0.00 91 1007.3
20260506013541 12 23 3.2 6.4 0.00 0.18 0.00 90 1007.3
20260506013059 13 349 3.2 6.4 0.00 0.15 0.00 89 1007.3
20260506012542 13 337 4.8 6.4 0.00 0.15 0.00 89 1007.2
20260506012044 13 335 4.8 6.4 0.00 0.15 0.00 89 1007.2
20260506011603 13 316 4.8 6.4 0.00 0.15 0.00 88 1007.3
20260506011041 13 322 4.8 4.8 0.00 0.15 0.00 89 1007.3
20260506010541 13 20 1.6 4.8 0.00 0.15 0.00 89 1007.4
20260506010053 13 38 3.2 4.8 0.00 0.15 0.00 89 1007.3
20260506005541 13 49 3.2 4.8 0.00 0.15 0.00 89 1007.3
20260506005042 13 44 3.2 4.8 0.00 0.15 0.00 89 1007.2
20260506004550 13 49 1.6 3.2 0.00 0.15 0.00 90 1007.3
20260506004042 13 49 1.6 3.2 0.00 0.15 0.00 89 1007.2
20260506003542 13 50 3.2 4.8 0.00 0.15 0.00 89 1007.2
20260506003052 13 60 1.6 4.8 0.00 0.15 0.00 89 1007.2
20260506002541 13 58 1.6 4.8 0.00 0.15 0.00 89 1007.3
20260506002042 13 60 1.6 4.8 0.00 0.15 0.00 90 1007.3
20260506001551 13 48 1.6 4.8 0.00 0.15 0.00 90 1007.4
20260506001044 13 39 1.6 4.8 0.00 0.15 0.00 90 1007.5
20260506000542 13 45 0.0 3.2 0.00 0.15 0.00 90 1007.6
20260506000050 13 45 0.0 3.2 0.00 0.15 0.00 90 1007.6
20260505235541 13 41 0.0 3.2 0.00 0.15 0.00 90 1007.5
20260505235041 13 40 3.2 4.8 0.00 0.15 0.00 91 1007.5
20260505234546 13 41 3.2 4.8 0.00 0.15 0.00 91 1007.6
20260505234042 12 33 3.2 6.4 0.00 0.15 0.00 91 1007.6
20260505233542 12 34 3.2 6.4 0.00 0.15 0.00 91 1007.6
20260505233045 12 35 4.8 6.4 0.00 0.15 0.00 92 1007.6
20260505232542 12 37 3.2 4.8 0.00 0.15 0.00 93 1007.6
20260505232043 12 26 3.2 4.8 0.00 0.15 0.00 93 1007.6
20260505231605 12 41 0.0 3.2 0.00 0.15 0.00 93 1007.7
20260505231043 12 37 1.6 3.2 0.00 0.15 0.00 93 1007.6
20260505230542 12 24 1.6 4.8 0.00 0.15 0.00 93 1007.6
20260505230054 12 356 3.2 6.4 0.00 0.15 0.00 93 1007.6
20260505225542 12 352 3.2 6.4 0.00 0.15 0.00 93 1007.7
20260505225042 12 13 3.2 4.8 0.00 0.15 0.00 92 1007.7
20260505224549 12 18 0.0 4.8 0.00 0.15 0.00 92 1007.7
20260505224045 12 43 1.6 3.2 0.00 0.15 0.00 92 1007.6
20260505223541 12 44 0.0 1.6 0.00 0.15 0.00 92 1007.7
20260505223048 12 0 0.0 1.6 0.00 0.15 0.00 92 1007.8
20260505222541 12 0 0.0 1.6 0.00 0.15 0.00 91 1007.8
20260505222043 12 0 0.0 1.6 0.00 0.15 0.00 91 1007.9
20260505221558 12 0 0.0 1.6 0.00 0.15 0.00 91 1007.9
20260505221042 12 44 0.0 3.2 0.00 0.15 0.00 91 1007.8
20260505220541 12 0 1.6 4.8 0.00 0.15 0.00 91 1007.9
20260505220053 12 0 0.0 4.8 0.00 0.15 0.00 91 1007.9
20260505215543 13 359 3.2 4.8 0.00 0.15 0.15 91 1008.0
20260505215041 13 43 0.0 3.2 0.00 0.15 0.15 90 1008.0
20260505214612 13 47 0.0 1.6 0.00 0.15 0.15 89 1008.0
20260505214040 13 67 0.0 1.6 0.00 0.15 0.15 87 1008.0
20260505213543 13 0 0.0 8.0 0.00 0.15 0.15 86 1008.0
20260505213057 13 0 1.6 9.7 0.00 0.15 0.15 86 1008.1
20260505212541 13 61 6.4 9.7 0.00 0.15 0.15 86 1008.1
20260505212043 13 83 4.8 9.7 0.00 0.15 0.15 87 1008.2
20260505211603 13 89 6.4 9.7 0.00 0.15 0.15 86 1008.2
20260505211042 13 76 8.0 9.7 0.00 0.15 0.15 87 1008.3
20260505210541 13 87 6.4 9.7 0.00 0.15 0.15 89 1008.2
20260505210046 13 75 3.2 6.4 0.00 0.15 0.15 90 1008.3
20260505205541 13 0 0.0 6.4 0.00 0.15 0.15 90 1008.3
20260505205042 13 75 4.8 6.4 0.00 0.15 0.15 90 1008.3
20260505204549 13 67 3.2 6.4 0.00 0.15 0.15 91 1008.3
20260505204041 13 58 3.2 4.8 0.03 0.15 0.15 92 1008.3
20260505203542 12 51 1.6 3.2 0.05 0.15 0.15 92 1008.3
20260505203054 12 0 0.0 3.2 0.08 0.15 0.15 92 1008.2
20260505202541 12 0 0.0 3.2 0.08 0.15 0.15 92 1008.3
20260505202042 12 49 1.6 3.2 0.08 0.15 0.15 92 1008.5
20260505201557 13 46 1.6 3.2 0.08 0.15 0.15 92 1008.3
20260505201042 13 0 0.0 3.2 0.08 0.15 0.15 91 1008.4
20260505200542 13 0 1.6 3.2 0.08 0.15 0.15 91 1008.4
20260505200058 13 0 0.0 3.2 0.08 0.15 0.15 90 1008.3
20260505195541 13 32 0.0 3.2 0.08 0.15 0.15 90 1008.3
20260505195041 13 32 0.0 4.8 0.08 0.15 0.15 89 1008.3
20260505194555 13 32 1.6 6.4 0.05 0.13 0.13 89 1008.4
20260505194041 13 30 3.2 8.0 0.03 0.10 0.10 88 1008.2
20260505193540 13 360 4.8 9.7 0.00 0.08 0.08 87 1008.2
20260505193046 13 323 6.4 11.3 0.00 0.08 0.08 85 1008.2
20260505192541 14 336 6.4 11.3 0.00 0.08 0.08 83 1008.1
20260505192041 14 18 4.8 11.3 0.00 0.08 0.08 82 1008.0
20260505191550 14 53 0.0 3.2 0.00 0.08 0.08 82 1007.9
20260505191041 14 0 0.0 1.6 0.00 0.08 0.08 82 1007.7
20260505190541 14 55 0.0 1.6 0.00 0.08 0.08 82 1007.7
20260505190051 14 0 0.0 1.6 0.00 0.08 0.08 81 1007.6
20260505185541 14 0 0.0 4.8 0.00 0.08 0.08 81 1007.6
20260505185042 14 55 1.6 4.8 0.00 0.08 0.08 80 1007.5
20260505184550 14 48 0.0 3.2 0.00 0.08 0.08 81 1007.5
20260505184042 14 15 1.6 4.8 0.00 0.08 0.08 82 1007.4
20260505183541 15 15 1.6 4.8 0.00 0.08 0.08 81 1007.4
20260505183103 15 63 0.0 3.2 0.00 0.08 0.08 79 1007.3
20260505182541 15 0 0.0 4.8 0.00 0.08 0.08 78 1007.4
20260505182041 15 75 1.6 4.8 0.00 0.08 0.08 76 1007.3
20260505181550 15 72 1.6 4.8 0.00 0.08 0.08 76 1007.4
20260505181041 15 72 0.0 4.8 0.00 0.08 0.08 76 1007.5
20260505180541 15 75 1.6 4.8 0.00 0.08 0.08 75 1007.4
20260505180053 15 70 1.6 6.4 0.00 0.08 0.08 76 1007.3
20260505175541 15 75 1.6 6.4 0.00 0.08 0.08 76 1007.3
20260505175042 15 78 4.8 6.4 0.00 0.08 0.08 76 1007.3
20260505174557 15 72 1.6 4.8 0.00 0.08 0.08 77 1007.3
20260505174042 15 68 1.6 4.8 0.00 0.08 0.08 77 1007.3
20260505173541 15 68 1.6 4.8 0.00 0.08 0.08 76 1007.3
20260505173050 15 63 1.6 4.8 0.00 0.08 0.08 76 1007.4
20260505172543 15 65 0.0 3.2 0.00 0.08 0.08 77 1007.4
20260505172043 15 64 1.6 3.2 0.00 0.08 0.08 75 1007.4
20260505171550 15 62 0.0 3.2 0.00 0.08 0.08 78 1007.4
20260505171043 15 0 0.0 4.8 0.00 0.08 0.08 77 1007.5
20260505170541 15 67 0.0 4.8 0.00 0.08 0.08 75 1007.4
20260505170045 15 75 1.6 3.2 0.00 0.08 0.08 75 1007.4
20260505165541 15 68 1.6 4.8 0.00 0.08 0.08 76 1007.4
20260505165041 15 67 1.6 6.4 0.00 0.08 0.08 77 1007.4
20260505164551 15 88 1.6 11.3 0.00 0.08 0.08 77 1007.5
20260505164041 15 72 3.2 11.3 0.00 0.08 0.08 76 1007.5
20260505163541 15 84 6.4 11.3 0.00 0.08 0.08 75 1007.5
20260505163051 15 66 6.4 11.3 0.00 0.08 0.08 76 1007.6
20260505162542 15 71 6.4 12.9 0.00 0.08 0.08 76 1007.4
20260505162042 15 62 8.0 12.9 0.00 0.08 0.08 76 1007.5
20260505161604 15 71 8.0 9.7 0.00 0.08 0.08 77 1007.6
20260505161042 15 49 3.2 6.4 0.00 0.08 0.08 77 1007.6
20260505160542 15 51 3.2 6.4 0.00 0.08 0.08 77 1007.7
20260505153101 16 320 4.8 6.4 0.00 0.08 0.08 76 1007.8
20260505152542 16 23 3.2 6.4 0.00 0.08 0.08 75 1007.7
20260505152041 16 2 3.2 8.0 0.00 0.08 0.08 76 1007.8
20260505151604 16 346 3.2 9.7 0.00 0.08 0.08 76 1007.8
20260505151041 16 257 6.4 11.3 0.00 0.08 0.08 74 1007.7
20260505150541 16 244 8.0 11.3 0.00 0.08 0.08 76 1007.7
20260505140541 16 276 4.8 8.0 0.00 0.08 0.08 77 1007.9
20260505140111 16 309 3.2 9.7 0.00 0.08 0.08 77 1008.0